User: anonymous   Login
Location: Wellington
(41.3000°S, 174.7830°E)
Time: 09:39:25
(UTC+13:00)
Language:

CZ-2C R/B - Orbit

View from above orbital plane
View from above orbital plane
View from above satellite
View from above satellite

Ground track
Ground track

The orbit data is extracted from the following two-line orbital elements,

1 31114U 07010B   19079.80893443  .00000001  00000-0  19016-4 0  9995
2 31114  98.3254 316.6585 0060287 150.1751 210.2885 14.19290696618536
Epoch (UTC): 20 March 2019 19:24:51
Eccentricity: 0.0060287
inclination: 98.3254°
perigee height: 784 km
apogee height: 871 km
right ascension of ascending node: 316.6585°
argument of perigee: 150.1751°
revolutions per day: 14.19290696
mean anomaly at epoch: 210.2885°
orbit number at epoch: 61853

The dashed part of the orbit path shows where the satellite is in the earth's shadow,  

DLR